Location: Feura Bush
(42.5779°N, 73.8787°W)
Time: 06:27:47
(UTC+00:00)

UNISAT 6 - Pass Details

Date: 07 December 2024
Orbit: 584 x 653 km, 97.7° (Epoch: 18 January)

Event Time Altitude Azimuth Distance (km) Brightness Sun altitude
Rises 21:56:00 0° 4° (N) 2,823 ? -6.3°
Reaches altitude 10° 21:58:14 10° 357° (N) 1,921 ? -6.7°
Maximum altitude 22:02:07 39° 289° (WNW) 891 ? -7.4°
Drops below altitude 10° 22:06:01 10° 220° (SW) 1,932 ? -8.0°
Sets 22:08:17 0° 212° (SSW) 2,840 ? -8.4°
